Hlavní strana
METAR-TAF:

METAR-TAF

Letiště :

Andrews-Murphy Airport

Andrews, Severní Karolína, Spojené státy americké

zeměpisná šířka: 35-11-42N, zeměpisná délka: 083-51-49W, výška: 517 m

Aktuální stav počasí

Zpráva byla vytvořena před 28 minutami, v 17:35 UTC
Západní vítr 6 kt
Teplota 12°C
Vlhkost vzduchu 58%
Tlak 1020 hPa
Viditelnost: 16.1 km
Oblačno až skoro zataženo ve výšce 10000 ft
Zataženo ve výšce 12000 ft

METAR: KRHP 151735Z AUTO 26006KT 10SM BKN100 OVC120 12/04 A3012 RMK AO2 T01220044

Čas: 13:03 (18:03 UTC)


TAF: chybějící

Stav a předpovědi počasí z více než 4 000 letišť (zprávy METAR a TAF).

Červené a žluté tečky na mapě představují dostupné meteorologické stanice.

Když kurzor umístíte na tečku, zobrazí se název stanice.

Pak kliknutím zobrazíte stav a předpověď počasí.

Chcete-li změnit mapu, kliknutím na zelené tlačítko se znaménkem +mapu přiblížíte, kliknutím na zelené tlačítko se znaménkem – mapu oddálíte a kliknutím na zelené šipky přejdete na sousední mapy.


METAR-TAF: